User: anonymous   Login
Location: Unspecified
(0.0000°N, 0.0000°E)
Time: 12:21:59
(UTC+00:00)
Language:

Vela 3B - Orbit

View from above orbital plane
View from above orbital plane
View from above satellite
View from above satellite

Ground track
Ground track

The orbit data is extracted from the following two-line orbital elements,

1 01459U 65058B   15183.11772273 -.00000701  00000-0  00000+0 0  9999
2 01459 004.1318 061.2425 4405782 282.4753 358.7007 00.21427346 39471
Epoch (UTC): 02 July 2015 02:49:31
Eccentricity: 0.4405782
inclination: 4.1318°
perigee height: 59614 km
apogee height: 163559 km
right ascension of ascending node: 61.2425°
argument of perigee: 282.4753°
revolutions per day: 0.21427346
mean anomaly at epoch: 358.7007°
orbit number at epoch: 3947

The dashed part of the orbit path shows where the satellite is in the earth's shadow,  

DLR